Погода в Фюрстенфельде

Австрия     47°02′52″N   16°04′48″E
темп.,
°C
ветер,
м/с
пор.,
м/с
влажн.,
%
обл.,
%
осадки,
мм/ч
давл.,
гПа
погр.,
м
24 октября, вс
вс2423:00+7ююз118999 0.0 103251
02:00+7юз1187100 0.0 103236
05:00+7юз118672 0.0 103220
08:00+4ю00955 0.0 103310
11:00+10ююв23612 0.0 1033838
14:00+12ю33480 0.0 10321149
17:00+10ю24573 0.0 1031146
20:00+5ю11750 0.0 103116
25 октября, пн
пн2523:00+4юз11810 0.0 103110
02:00+3зюз11860 0.0 103110
05:00+2юз11880 0.0 103010
08:00+1зюз11870 0.0 102910
11:00+9ю24520 0.0 1029559
14:00+11ю244211 0.0 1026827
17:00+9ююв235828 0.0 102467
20:00+5ююз117662 0.0 102610
26 октября, вт
вт2623:00+4зсз1181100 0.0 102510
02:00+3зсз1184100 0.0 102410
05:00+2зсз1187100 0.0 102410
08:00+2зсз1183100 0.0 102410
11:00+8с1157100 0.0 1024313
14:00+11св1250100 0.0 1023581
17:00+9ююв116226 0.0 102310
20:00+5зюз11765 0.0 102510
27 октября, ср
ср2723:00+4з21785 0.0 102614
02:00+4з217514 0.0 102611
05:00+4зюз118648 0.0 102710
08:00+4з118944 0.0 102810
11:00+12зюз22616 0.0 1028387
14:00+15юз125195 0.0 1026933
17:00+12ю1164100 0.0 102613
20:00+8зсз118074 0.0 102710
28 октября, чт
чт2823:00+7сз1187100 0.0 102810
02:00+6зсз118814 0.0 102810
05:00+5зсз11915 0.0 102710
08:00+5з11910 0.0 102810
11:00+12ю12645 0.0 1027441
14:00+14ююв22530 0.0 10261011
17:00+12ююв23630 0.0 102561
20:00+7ю11775 0.0 102610